CST,Max TemperatureF,Mean TemperatureF,Min TemperatureF,Max Dew PointF,MeanDew PointF,Min DewpointF,Max Humidity, Mean Humidity, Min Humidity, Max Sea Level PressureIn, Mean Sea Level PressureIn, Min Sea Level PressureIn, Max VisibilityMiles, Mean VisibilityMiles, Min VisibilityMiles, Max Wind SpeedMPH, Mean Wind SpeedMPH, Max Gust SpeedMPH,PrecipitationIn, CloudCover, Events, WindDirDegrees
2012-11-1,34,31,27,28,23,19,78,71,63,30.20,30.15,30.09,10,10,10,23,13,29,0.00,8,,1
2012-11-2,33,31,29,29,27,22,92,82,72,30.20,30.16,30.13,10,5,0,12,4,14,0.14,8,Fog-Snow,81
2012-11-3,35,33,30,30,29,28,100,93,85,30.27,30.21,30.15,10,4,1,10,5,13,0.24,8,Snow,29
2012-11-4,33,32,30,30,29,28,100,91,82,30.26,30.22,30.17,10,7,0,7,2,9,0.00,8,,349
2012-11-5,41,35,28,37,33,28,92,86,79,30.25,30.01,29.67,10,7,3,23,10,30,0.11,8,Rain,200
2012-11-6,44,40,35,39,36,32,92,86,79,30.03,29.85,29.69,10,9,4,24,14,32,0.03,7,Rain,311
2012-11-7,45,38,30,37,34,29,92,81,70,30.09,29.97,29.76,10,10,10,23,9,29,T,7,,184
2012-11-8,43,37,30,36,31,24,85,78,70,30.25,30.01,29.76,10,10,10,26,16,35,0.01,7,,351
2012-11-9,34,31,28,29,25,21,85,79,72,30.25,30.13,29.97,10,9,4,22,15,25,T,8,Rain,41
2012-11-10,33,30,27,31,30,26,92,89,85,29.96,29.71,29.49,10,3,1,28,14,37,0.22,8,Rain-Snow,29
2012-11-11,27,22,16,25,18,11,100,86,71,29.82,29.71,29.54,10,8,1,22,14,28,0.02,8,Snow,282
2012-11-12,22,18,13,17,12,9,88,81,73,30.20,30.01,29.79,10,8,2,22,13,28,T,6,Snow,281
2012-11-13,27,20,12,21,15,9,88,78,68,30.28,30.24,30.18,10,10,7,12,5,14,0.00,5,,251
2012-11-14,33,23,12,31,22,10,100,90,80,30.26,30.11,30.01,10,6,3,15,6,18,0.00,4,,188
2012-11-15,34,26,17,28,18,14,85,72,58,30.48,30.36,30.03,10,10,10,16,8,20,0.00,1,,297
2012-11-16,38,29,20,24,20,17,84,68,52,30.45,30.24,30.07,10,10,10,26,15,31,0.00,4,,172
2012-11-17,39,32,25,31,27,23,100,82,64,30.11,30.08,30.05,10,9,6,9,4,13,0.00,5,,164
2012-11-18,45,34,22,38,29,20,92,84,76,30.04,29.97,29.88,10,7,4,12,5,15,0.00,1,,145
2012-11-19,43,34,25,34,30,24,96,82,67,30.17,30.04,29.88,10,8,5,16,7,20,0.00,3,,272
2012-11-20,41,32,22,34,28,21,96,86,76,30.16,30.01,29.87,10,9,5,18,9,22,0.00,5,,173
2012-11-21,46,38,29,39,32,29,100,85,70,29.88,29.73,29.51,10,7,2,10,4,13,0.00,4,,278
2012-11-22,32,22,12,31,19,6,100,87,74,30.32,29.93,29.54,10,5,1,31,21,40,0.07,8,Snow,336
2012-11-23,17,13,9,10,8,4,80,77,73,30.53,30.46,30.34,10,8,2,26,13,33,T,8,Snow,317
2012-11-24,29,15,1,23,13,-2,88,81,74,30.38,29.98,29.74,10,9,2,24,12,28,T,7,Snow,175
2012-11-25,28,15,2,22,12,-2,88,78,67,30.36,30.06,29.91,10,6,0,29,11,32,0.01,7,Fog-Snow,338
2012-11-26,25,13,0,18,7,-5,87,77,67,30.47,30.31,30.11,10,10,10,16,8,20,T,5,,225
2012-11-27,26,21,16,21,14,11,88,78,67,30.30,30.18,30.07,10,10,5,13,6,16,T,8,Snow,345
2012-11-28,33,24,14,27,18,8,85,79,73,30.31,30.17,30.05,10,10,7,25,10,29,0.00,7,,196
2012-11-29,19,15,10,12,8,4,76,69,61,30.29,30.24,30.22,10,10,10,20,12,24,0.00,7,,47
2012-11-30,34,27,19,31,23,14,92,83,73,30.21,30.06,29.81,10,7,4,23,13,30,0.00,8,,144